Regional Weather Roundup
Issued by NWS Pendleton, OR

Home | Current Version | Previous Version | Text Only | Print | Product List | Glossary On
Versions: 1 2 3 4 5 6 7 8 9 10 11 12 13 14 15 16 17 18 19 20 21 22 23 24 25 26 27 28 29 30 31 32 33 34 35 36 37 38 39 40 41 42 43 44 45 46 47 48 49 50
000
ASUS46 KPDT 272025
RWRPDT
PENDLETON REGIONAL WEATHER ROUNDUP
NATIONAL WEATHER SERVICE PENDLETON OREGON
100 PM PDT THU APR 27 2017

NOTE: FAIR INDICATES FEW OR NO CLOUDS BELOW 12,000 FEET WITH NO
SIGNIFICANT WEATHER AND/OR OBSTRUCTIONS TO VISIBILITY.

# INDICATES UNOFFICIAL STATION AND DATA

WAZ520-272110-
EAST SLOPES OF WASHINGTON CASCADES

CITY            SKY/WX      TMP DP  RH  WIND    PRES   REMARKS
#CLE ELUM HS    N/A         43  32  65  W8      29.93S
#CLE ELUM LAKE  N/A         42  32  67  CALM    30.00S
#GLENWOOD       N/A         51  36  56  S5      30.00F
#MANASTASH CYN  N/A         50  50  100 CALM    29.92R
#NELSON 3SW     N/A         44  33  65  NE1     30.21S
#NILE           N/A         47  29  49  W8      29.23F
#TEANAWAY 4NE   N/A         49  33  54  SW3     N/A
#TROUT LAKE 1NE N/A         47  35  63  N10     30.04F
#TROUT LAKE 1E  N/A         49  35  58  N5      30.03F
$$

WAZ521-272110-
SIMCOE HIGHLANDS

CITY            SKY/WX      TMP DP  RH  WIND    PRES   REMARKS
#BICKLETON HS   N/A         48  29  47  W13     29.59F WCI 43
#CENTERVILLE 1SWN/A         47  37  68  W21     29.98F WCI 39
#GOLDENDALE 1NE N/A         50  24  36  SW3     N/A
#GOLDENDALE 4W  N/A         50  11  20  W18     30.03F
#GOODNOE HILLS  N/A         54  36  50  W24G35  N/A
#LYLE 6NE       N/A         48  42  80  SW15    30.01F WCI 42
#PITT 4SE       N/A         46  39  76  W15G25  30.05F WCI 40
$$

WAZ026-272110-
KITTITAS VALLEY

CITY            SKY/WX      TMP DP  RH  WIND    PRES   REMARKS
ELLENSBURG AP   SUNNY       53  32  45  W30G39  29.94S
#ELLENSBURG CWU N/A         50  29  44  NW18    29.90S
#ELLENSBURG 3NE N/A         49  32  52  N15G26  28.02S WCI 43
#ELLENSBURG 1E  N/A         51  N/A N/A W3      N/A
#ELLENSBURG 13S N/A         55  25  31  NE5     N/A
#KITTITAS 4N    N/A         51  34  52  W18     29.93F
#KITTITAS 3S    N/A         52  33  48  W20G29  29.94S
#THORP 6N       N/A         45  33  63  W25G38  29.98S WCI 36
$$

WAZ027-272110-
YAKIMA VALLEY

CITY            SKY/WX      TMP DP  RH  WIND    PRES   REMARKS
SUNNYSIDE AP    PTCLDY      58  30  34  W8      29.95F
YAKIMA AIRPORT  MOCLDY      61  28  28  VRB6    29.95S
YAKIMA-VAGABOND SUNNY       57  24  28  N20     29.92F
#DONALD 2NE     N/A         61   4  10  SW7     28.79F
#GRANDVIEW      N/A         58  23  26  W3      29.96F
#MABTON         N/A         57  27  31  NW6     29.94F
#MOXEE 2E       N/A         56   0  10  W12     29.87S
#NACHES 2SW     N/A         55  29  37  W8      29.94S
#TERRACE HTS    N/A         61  29  30  N9      29.92F
#TOPPENISH      N/A         57  27  31  CALM    29.86F
#WEST VALLEY    N/A         56  27  33  W6      29.93F
#W YAKIMA       N/A         55  28  35  W7      29.95F
#WHITE SWAN 5E  N/A         59  30  33  W3      29.95F
#WILEY CITY 3W  N/A         56  24  29  W2      29.91F
$$

WAZ028-272110-
LOWER COLUMBIA BASIN...WASHINGTON

CITY            SKY/WX      TMP DP  RH  WIND    PRES   REMARKS
HANFORD         LGT RAIN    58  24  27  NW15G24 29.91F
PASCO           SUNNY       61  27  27  W12     29.96F
PROSSER AWOS    N/A         57  27  31  VRB6    29.98F
RICHLAND AWOS   MOCLDY      63  29  28  W6G25   29.94F
#BENTON CITY    N/A         56  29  35  NW6     29.86F
#CONNELL 5N     N/A         59  30  33  SW10    29.91F
#CONNELL 5NW    N/A         57  30  35  SW8     29.86F
#ELTOPIA 6NW    N/A         54  33  45  CALM    28.90F
#KAHLOTUS       N/A         53  31  43  NW25G41 29.92F
#KENNEWICK 3S   N/A         58  31  36  SW1     29.96F
#PATERSON       N/A         57  39  51  W18G29  29.95F
#SAGEMOOR 2W    N/A         54  35  48  SW7     29.80F
#TOUCHET 2S     N/A         58  40  51  SW9     29.97F
#WEST PASCO     N/A         64  35  34  S6      29.95F
$$

WAZ029-272110-
FOOTHILLS OF THE BLUES...WASHINGTON

CITY            SKY/WX      TMP DP  RH  WIND    PRES   REMARKS
WALLA WALLA AP  MOSUNNY     56  32  40  W12     29.97F
#CLYDE 6NW      N/A         53  32  45  W15G26  29.94F
#DAYTON SCHOOL  N/A         51  27  39  SW6     29.97F
#LOWDEN 2SE     N/A         57  35  43  W9      29.94F
#PLEASANT VIEW 1N/A         55  36  49  S14     29.98F
#PRESCOTT       N/A         55  38  53  SW7G24  29.96F
#WHITMAN COLLEGEN/A         54  32  43  SW8     30.02F
#WAITSBURG 5S   N/A         50  34  54  SW6     30.07F
#WAITSBURG 8N   N/A         50  N/A N/A S25     29.71S
#WALLA WALLA 5E N/A         55  35  47  W10     N/A
#WALLA WALLA U  N/A         55  31  40  W1      29.98F
#WHITMAN MISSIONN/A         55  34  45  SW7     29.99F
$$

WAZ030-272110-
BLUE MOUNTAINS...WASHINGTON

CITY            SKY/WX      TMP DP  RH  WIND    PRES   REMARKS
#DIXIE 5SE      N/A         44  33  65  SW14G26 29.87S WCI 37
$$

ORZ009-041-WAZ024-272110-
COLUMBIA RIVER GORGE

CITY            SKY/WX      TMP DP  RH  WIND    PRES   REMARKS
THE DALLES AP   PTCLDY      57  40  53  W24     30.04F
#ARLINGTON AIRPON/A         55  37  51  SW20    30.00F
#CELILO DOT     N/A         56  34  43  SW12    N/A
#LYLE           N/A         52  41  66  W25G33  30.07F
#MOSIER 1S      N/A         51  27  39  CALM    30.03F
#MURDOCK        N/A         54  41  61  W18G32  30.01F
#RUFUS DOT      N/A         56  36  47  W23     N/A
#SMITHVILLE     N/A         55  39  55  W20G28  29.99F

$$

ORZ510-272110-
NORTH CENTRAL OREGON

CITY            SKY/WX      TMP DP  RH  WIND    PRES   REMARKS
#ANTELOPE       N/A         45  35  68  W7      29.94F
#CHENOWITH 1W   N/A         45  37  73  W24     N/A    WCI 36
#COW CYN RST AREN/A         44  34  68  W12     N/A    WCI 38
#DUFUR          N/A         51  40  66  NW8     30.01S
#DUFUR 9E       N/A         45  36  70  W28G39  30.10F WCI 36
#GRASS VALLEY 1SN/A         46  36  68  NW7     30.15F
#KENT DOT       N/A         44  27  51  N10     N/A
#MAUPIN SCHOOL  N/A         56  37  49  W8      30.06F
#MORO SCHOOL    N/A         49  40  71  W18     30.09F WCI 43
#SHANIKO 5WSW   N/A         42  28  57  N16     N/A    WCI 34
#SHANIKO 4NW    N/A         42  33  70  SW15G24 29.99F WCI 34
#TYGH VALLEY 2NEN/A         53  37  54  N2      30.01F
#WAPANITIA AIRPON/A         51  37  59  W13     30.06F
#WASCO DOT      N/A         53  32  45  W16     N/A
#WASCO 5NE      N/A         52  38  59  N15G29  30.01F
$$

ORZ511-272110-
CENTRAL OREGON

CITY            SKY/WX      TMP DP  RH  WIND    PRES   REMARKS
BEND AIRPORT    MOCLDY      46  23  40  W13     30.02F WCI 40
MADRAS AIRPORT  LGT RAIN    43  34  70  CALM    30.06F
PRINEVILLE AP   PTCLDY      48  32  54  W18G25  30.03F WCI 41
REDMOND AIRPORT LGT RAIN    48  28  46  W13     30.04F WCI 43
#ASHWOOD SCHOOL N/A         47  33  58  W7      29.99F
#BEND 1SW       N/A         50  30  46  NW2     N/A
#BEND-AWBREY    N/A         49  29  46  NE2     30.06F
#BEND-KIM LN    N/A         48  31  51  W16G30  30.00S WCI 42
#CULVER         N/A         47  31  53  SW7     29.98F
#CULVER 8W      N/A         52  29  41  S2      30.03F
#LAKE BILLY CHINN/A         48  N/A N/A NW12    30.11F WCI 43
#MADRAS 4S      N/A         47   9  21  SW1     30.10F
#POWELL BUTTE   N/A         44  29  55  NW13    29.98F WCI 38
#PRINEVILLE     N/A         48  33  56  W7      30.14F
#PRINEVILLE 3N  N/A         48  34  58  NW3     30.04F
#WARM SPRINGS   N/A         50  37  61  CALM    30.01F

$$


ORZ509-272110-
EAST SLOPES OF OREGON CASCADES

CITY            SKY/WX      TMP DP  RH  WIND    PRES   REMARKS
SISTERS AWOS    N/A         45  32  60  SW15G36 30.01S WCI 38
#BLUE BOX PASS  N/A         35  N/A N/A E1      N/A
#CAMP SHERMAN   N/A         45  35  68  SW2     30.15S
#LA PINE 4NW    N/A         41  28  59  W6      30.12F
#LAVA BUTTE DOT N/A         44  27  51  W6      N/A
#SISTERS 3N     N/A         46  30  53  S8      30.06S
#SUNRIVER       N/A         39  33  79  SE2     30.10F
#TUMALO 3W      N/A         44  27  51  NW14    29.95F WCI 37
#WANOGA BUTTE D N/A         N/A N/A N/A NW7     N/A

$$

ORZ044-272110-
LOWER COLUMBIA BASIN...OREGON

CITY            SKY/WX      TMP DP  RH  WIND    PRES   REMARKS
HERMISTON       MOSUNNY     56  32  40  W13     29.97F
#BOARDMAN SCHOOLN/A         59  37  44  SW15G25 29.96F
#BOARDMAN 8SW   N/A         57  37  47  W20     29.97F
#ECHO 8SW       N/A         57  35  43  W14     29.99F
#I-84 EX 198 DOTN/A         53  33  46  E15     N/A
#IONE SCHOOL    N/A         53  34  48  W18G30  30.02F
$$

ORZ507-272110-
NORTHERN FOOTHILLS OF THE BLUES

CITY            SKY/WX      TMP DP  RH  WIND    PRES   REMARKS
PENDLETON AIRPT MOCLDY      51  32  48  W15     29.98F
#ADAMS 3WNW     N/A         51  34  52  SW12    29.98F
#ATHENA         N/A         49  31  50  SW8     30.03F
#CAYUSE         N/A         50  31  48  W10     29.99F
#HELIX SCHOOL   N/A         50  31  48  W9      29.99
#HELIX 3N       N/A         51  30  44  SW13    29.94F
#HOLDMAN 5SE    N/A         52  32  46  W9      29.97F
#HOLDMAN 6E     N/A         51  33  50  SW12    29.80F
#M-F FERNDALE   N/A         58  30  34  CALM    29.95F
#M-FREEWATER 5SEN/A         52  33  48  W6      29.97F
#PENDLETON DNTN N/A         58  33  39  SW2     29.98S
#PDT AQUATIC CTRN/A         55  33  43  W9      29.99F
#PDT SUNRIDGE   N/A         53  31  43  NW9     30.01F
#PENDLETON 7NW  N/A         53  36  52  W8      25.63S
#PILOT ROCK 1S  N/A         51  31  46  W5      30.00F
#PILOT ROCK     N/A         53  32  45  N8      30.00F
#TUTUILLA       N/A         53  34  48  W7      30.01F
#UMAPINE 2E     N/A         57  37  47  SW8     29.95F
#WESTON SCHOOL  N/A         48  25  40  W7      29.96F

$$

ORZ508-272110-
SOUTHERN FOOTHILLS OF THE BLUES

CITY            SKY/WX      TMP DP  RH  WIND    PRES   REMARKS
LEXINGTON       PTCLDY      54  32  43  W26     30.02F
#AJAX           N/A         47  29  49  S15     30.15F WCI 41
#CONDON 5W      N/A         39  33  79  W15G26  29.96F WCI 31
#HEPPNER EOC    N/A         48  32  54  W15G29  29.95F WCI 42
#HEPPNER 4NE    N/A         47  32  56  W20G26  30.01F WCI 40
#LEXINGTON 2SE  N/A         54  35  48  CALM    29.97F
#MIKKALO        N/A         51  33  50  NW17G26 30.10F
#OLEX 4N        N/A         52  36  54  W21G37  29.99F
#RUGGS 5NE      N/A         48  30  49  W20G29  30.14F WCI 41
#RUGGS 2SW      N/A         47  33  58  W15G26  30.04F WCI 41

$$

ORZ502-503-272110-
BLUE MOUNTAINS

CITY            SKY/WX      TMP DP  RH  WIND    PRES   REMARKS
MEACHAM         LGT RAIN    39  23  52  VRB7    29.95F
#BATTLE MTN DOT N/A         39  26  59  N1      N/A
#GREENHORN 9SW  N/A         36  30  79  W5      26.19R
#HARDMAN 10S    N/A         42  31  65  N3      30.15F
#LADD CYN SMT   N/A         40  26  57  NW9     N/A
#LADD CREEK ODOTN/A         42  27  55  NE8     N/A
#LONG CREEK HS  N/A         41  32  70  CALM    N/A
#N POWDER DOT   N/A         43  27  53  NW7     N/A
#PIKES PEAK     N/A         39  27  62  N15     27.99S WCI 31
#TOLLGATE       N/A         30  29  96  S5      29.78S
#TROY SCHOOL    N/A         49  35  58  NW3     29.83S
#UKIAH          N/A         39  32  76  NW6     29.95S
#WESTON 4E      N/A         42  30  62  SW7     29.99F
$$

ORZ505-272110-
JOHN DAY BASIN

CITY            SKY/WX      TMP DP  RH  WIND    PRES   REMARKS
JOHN DAY        MOCLDY      45  32  60  W16     29.99F WCI 38
#ANTELOPE 9ESE  N/A         52  33  48  SW1     N/A
#DAYVILLE SCHOOLN/A         49  27  42  NW5     29.98F
#MITCHELL       N/A         46  34  63  NW2     30.17F
#MITCHELL 8NW   N/A         44  28  53  NW2     30.06F
#MONUMENT HS    N/A         51  30  44  N7      29.96F
#MT. VERNON 5SE N/A         42  31  65  W2      29.93F
#SPRAY SCHOOL   N/A         52  N/A N/A CALM    N/A
$$

ORZ506-272110-
OCHOCO AND JOHN DAY HIGHLANDS

CITY            SKY/WX      TMP DP  RH  WIND    PRES   REMARKS
#HORSE RIDGE DO N/A         41  25  53  NW12    N/A    WCI 34
#PAULINA ODOT   N/A         45  25  45  W8      N/A
#PINE MTN OBS   N/A         33  23  66  N7      N/A
#PRAIRIE CITY   N/A         44  28  53  W7      30.14
#SENECA 9NW     N/A         40  30  67  N2      30.01F
$$

ORZ049-272110-
GRANDE RONDE VALLEY

CITY            SKY/WX      TMP DP  RH  WIND    PRES   REMARKS
LA GRANDE       MOCLDY      46  28  49  W10     29.97F
#COVE           N/A         41  35  79  N1      30.02S
#COVE SCHOOL    N/A         41  34  76  CALM    30.01S
#COVE 6NW       N/A         42  35  76  N10     30.03F
#ELGIN 3N       N/A         44  29  55  S7      29.94F
#ELGIN 1E       N/A         44  32  62  CALM    N/A
#IMBLER SCHOOL  N/A         40  33  76  CALM    29.94F
#ISLAND CITY 4N N/A         51  46  83  SW5     30.13F
#UNION 1S       N/A         40  34  79  CALM    30.04R
$$

ORZ050-272110-
WALLOWA COUNTY

CITY            SKY/WX      TMP DP  RH  WIND    PRES   REMARKS
JOSEPH AIRPORT  CLOUDY      43  21  41  N14     29.93S WCI 36
#IMNAHA SCHOOL  N/A         49  34  56  N7      29.96R
#IMNAHA 10S     N/A         47  25  42  S5      29.93F
#JOSEPH 3N      N/A         40  26  57  N12G25  29.96S WCI 33
#JOSEPH 3W      N/A         40  25  55  NE6     29.77S
#LOSTINE        N/A         41  30  65  SW5     29.80R
#LOSTINE 3SE    N/A         39  30  70  W1      29.99S
#MT HOWARD 8000 N/A         24  21  88  W2      29.80R
#PROMISE 1S     N/A         38  29  70  SW10    30.10R
#WALLOWA SCHOOL N/A         42  30  62  W2      29.93S



$$



USA.gov is the U.S. government's official web portal to all federal, state and local government web resources and services.